CZ-3B DEB, 40185

Orbit data source: Space-Track

CZ-3B DEB, 40185 is space debris in HEO originally from a launch on Mon, 19 Dec 2011 UTC launched from the Xichang Space Center, China (XSC). Debris objects in space refer to the collection of defunct objects orbiting the Earth. Examples of debris include non-operational satellites, rocket bodies, and fragments generated from explosions, collisions, or faulty payload assembly.

Loading next visibility...
Identifier
40185, 2011-077J
Orbit
HEO
Country
Flag of CNCN / PRC
Related business
Manufacturer
CALT
Mission
Spacecraft
Bus & Motor
Unknown
Mass
Unknown
Launch date (UTC)
2011-12-19 (14 years ago)
Launch vehicle
Unknown
Launch site
Xichang Space Center, China (XSC)
Object type
Payload
Rocket body
Debris
Shape & HBR
Unknown shape, 0.6 m
Radar Cross Section
Medium (>0.1 m² and <1 m²)

Expand to show TLE details & history
Last TLE update: 4 days ago

TLE from 4 days ago
0 CZ-3B DEB
1 40185U 11077J   26031.04341706  .00000383  00000-0  40634-2 0  9994
2 40185  25.3834 280.4343 7489553 191.5012 128.9074  1.92889342 82680
Epoch: 2026-01-31T01:02Z
TLE epoch observation values (Epoch: 2026-01-31T01:02:31.233Z)
Latitude
0.00006°
Longitude
134.5604°
Altitude
38,621.701 km
Speed
1.759 km/s
True Right ascension
18h 41m 51s
True Declination
0° 00' 00"
Sunlit
Object was in daylight at epoch
Visualization orbit readout
Latitude
Unknown
Longitude
Unknown
Altitude
Unknown
Speed
Unknown
Apparent Right ascension
Unknown
Apparent Declination
Unknown
Sunlit
N/A
Visualization observer readout
Local Sidereal Time
20:16:38
Azimuth
Unknown
Elevation
Unknown
Doppler factor
Unknown
Orbital elements
Apogee altitude
41,305.871 km
Perigee altitude
466.416 km
Semi-major axis
27,264.28 km
Eccentricity
0.74896
Inclination
25.3834°
RAAN
280.4343°
Arg. of periapsis
191.5012°
True anomaly
168.49525°
Mean anomaly
128.9074°
Eccentric anomaly
150.22032°
Mean motion
0.48212 °/min
Orbital period
746.71 mins
BSTAR
0.0040634
Loading maneuver chart data...
Computing Atmospheric mass density...
Loading historical data...
Loading historical data...
Loading historical data...
Loading historical data...
Loading historical data...
Loading historical data...
Loading historical data...

Documentation

Showing up to 5 results
|